Year,Month,Day,Hour,Minute,Value (Times are PST for temperature in C)
2014,08,23,00,00,17.30
2014,08,23,00,01,17.30
2014,08,23,00,02,17.20
2014,08,23,00,03,17.20
2014,08,23,00,04,17.20
2014,08,23,00,05,17.10
2014,08,23,00,06,17.10
2014,08,23,00,07,17.10
2014,08,23,00,08,17.00
2014,08,23,00,09,17.00
2014,08,23,00,10,17.00
2014,08,23,00,11,16.90
2014,08,23,00,12,16.90
2014,08,23,00,13,16.90
2014,08,23,00,14,16.90
2014,08,23,00,15,16.80
2014,08,23,00,16,16.80
2014,08,23,00,17,16.80
2014,08,23,00,18,16.80
2014,08,23,00,19,16.80
2014,08,23,00,20,16.80
2014,08,23,00,21,16.80
2014,08,23,00,22,16.80
2014,08,23,00,23,16.80
2014,08,23,00,24,16.80
2014,08,23,00,25,16.80
2014,08,23,00,26,16.80
2014,08,23,00,27,16.70
2014,08,23,00,28,16.70
2014,08,23,00,29,16.70
2014,08,23,00,30,16.70
2014,08,23,00,31,16.80
2014,08,23,00,32,16.80
2014,08,23,00,33,16.80
2014,08,23,00,34,16.80
2014,08,23,00,35,16.80
2014,08,23,00,36,16.80
2014,08,23,00,37,16.80
2014,08,23,00,38,16.80
2014,08,23,00,39,16.80
2014,08,23,00,40,16.90
2014,08,23,00,41,16.90
2014,08,23,00,42,16.90
2014,08,23,00,43,16.90
2014,08,23,00,44,16.90
2014,08,23,00,45,16.80
2014,08,23,00,46,16.80
2014,08,23,00,47,16.80
2014,08,23,00,48,16.80
2014,08,23,00,49,16.70
2014,08,23,00,50,16.70
2014,08,23,00,51,16.70
2014,08,23,00,52,16.70
2014,08,23,00,53,16.70
2014,08,23,00,54,16.70
2014,08,23,00,55,16.70
2014,08,23,00,56,16.70
2014,08,23,00,57,16.70
2014,08,23,00,58,16.70
2014,08,23,00,59,16.70
2014,08,23,01,00,16.70
2014,08,23,01,01,16.70
2014,08,23,01,02,16.70
2014,08,23,01,03,16.70
2014,08,23,01,04,16.70
2014,08,23,01,05,16.70
2014,08,23,01,06,16.70
2014,08,23,01,07,16.70
2014,08,23,01,08,16.60
2014,08,23,01,09,16.60
2014,08,23,01,10,16.60
2014,08,23,01,11,16.50
2014,08,23,01,12,16.50
2014,08,23,01,13,16.40
2014,08,23,01,14,16.40
2014,08,23,01,15,16.30
2014,08,23,01,16,16.30
2014,08,23,01,17,16.20
2014,08,23,01,18,16.20
2014,08,23,01,19,16.10
2014,08,23,01,20,16.10
2014,08,23,01,21,16.00
2014,08,23,01,22,15.90
2014,08,23,01,23,15.90
2014,08,23,01,24,15.80
2014,08,23,01,25,15.80
2014,08,23,01,26,15.80
2014,08,23,01,27,15.80
2014,08,23,01,28,15.70
2014,08,23,01,29,15.70
2014,08,23,01,30,15.70
2014,08,23,01,31,15.70
2014,08,23,01,32,15.70
2014,08,23,01,33,15.70
2014,08,23,01,34,15.70
2014,08,23,01,35,15.70
2014,08,23,01,36,15.70
2014,08,23,01,37,15.70
2014,08,23,01,38,15.60
2014,08,23,01,39,15.60
2014,08,23,01,40,15.60
2014,08,23,01,41,15.60
2014,08,23,01,42,15.60
2014,08,23,01,43,15.60
2014,08,23,01,44,15.50
2014,08,23,01,45,15.50
2014,08,23,01,46,15.50
2014,08,23,01,47,15.50
2014,08,23,01,48,15.50
2014,08,23,01,49,15.50
2014,08,23,01,50,15.50
2014,08,23,01,51,15.50
2014,08,23,01,52,15.50
2014,08,23,01,53,15.50
2014,08,23,01,54,15.60
2014,08,23,01,55,15.60
2014,08,23,01,56,15.60
2014,08,23,01,57,15.60
2014,08,23,01,58,15.70
2014,08,23,01,59,15.70
2014,08,23,02,00,15.70
2014,08,23,02,01,15.80
2014,08,23,02,02,15.70
2014,08,23,02,03,15.70
2014,08,23,02,04,15.70
2014,08,23,02,05,15.70
2014,08,23,02,06,15.70
2014,08,23,02,07,15.60
2014,08,23,02,08,15.60
2014,08,23,02,09,15.60
2014,08,23,02,10,15.60
2014,08,23,02,11,15.60
2014,08,23,02,12,15.60
2014,08,23,02,13,15.50
2014,08,23,02,14,15.50
2014,08,23,02,15,15.50
2014,08,23,02,16,15.40
2014,08,23,02,17,15.40
2014,08,23,02,18,15.40
2014,08,23,02,19,15.40
2014,08,23,02,20,15.30
2014,08,23,02,21,15.30
2014,08,23,02,22,15.30
2014,08,23,02,23,15.20
2014,08,23,02,24,15.20
2014,08,23,02,25,15.20
2014,08,23,02,26,15.20
2014,08,23,02,27,15.20
2014,08,23,02,28,15.20
2014,08,23,02,29,15.20
2014,08,23,02,30,15.20
2014,08,23,02,31,15.20
2014,08,23,02,32,15.20
2014,08,23,02,33,15.20
2014,08,23,02,34,15.10
2014,08,23,02,35,15.10
2014,08,23,02,36,15.10
2014,08,23,02,37,15.10
2014,08,23,02,38,15.10
2014,08,23,02,39,15.00
2014,08,23,02,40,15.00
2014,08,23,02,41,15.00
2014,08,23,02,42,14.90
2014,08,23,02,43,14.90
2014,08,23,02,44,14.90
2014,08,23,02,45,14.80
2014,08,23,02,46,14.80
2014,08,23,02,47,14.80
2014,08,23,02,48,14.80
2014,08,23,02,49,14.80
2014,08,23,02,50,14.80
2014,08,23,02,51,14.80
2014,08,23,02,52,14.90
2014,08,23,02,53,14.90
2014,08,23,02,54,14.90
2014,08,23,02,55,14.90
2014,08,23,02,56,14.90
2014,08,23,02,57,14.90
2014,08,23,02,58,14.90
2014,08,23,02,59,14.90
2014,08,23,03,00,14.90
2014,08,23,03,01,14.90
2014,08,23,03,02,14.90
2014,08,23,03,03,14.90
2014,08,23,03,04,14.90
2014,08,23,03,05,14.90
2014,08,23,03,06,14.80
2014,08,23,03,07,14.80
2014,08,23,03,08,14.80
2014,08,23,03,09,14.80
2014,08,23,03,10,14.80
2014,08,23,03,11,14.70
2014,08,23,03,12,14.70
2014,08,23,03,13,14.70
2014,08,23,03,14,14.70
2014,08,23,03,15,14.70
2014,08,23,03,16,14.60
2014,08,23,03,17,14.60
2014,08,23,03,18,14.60
2014,08,23,03,19,14.60
2014,08,23,03,20,14.50
2014,08,23,03,21,14.50
2014,08,23,03,22,14.50
2014,08,23,03,23,14.40
2014,08,23,03,24,14.40
2014,08,23,03,25,14.40
2014,08,23,03,26,14.30
2014,08,23,03,27,14.30
2014,08,23,03,28,14.30
2014,08,23,03,29,14.30
2014,08,23,03,30,14.30
2014,08,23,03,31,14.30
2014,08,23,03,32,14.30
2014,08,23,03,33,14.30
2014,08,23,03,34,14.20
2014,08,23,03,35,14.20
2014,08,23,03,36,14.20
2014,08,23,03,37,14.20
2014,08,23,03,38,14.20
2014,08,23,03,39,14.20
2014,08,23,03,40,14.30
2014,08,23,03,41,14.30
2014,08,23,03,42,14.30
2014,08,23,03,43,14.30
2014,08,23,03,44,14.40
2014,08,23,03,45,14.50
2014,08,23,03,46,14.50
2014,08,23,03,47,14.60
2014,08,23,03,48,14.60
2014,08,23,03,49,14.60
2014,08,23,03,50,14.70
2014,08,23,03,51,14.70
2014,08,23,03,52,14.70
2014,08,23,03,53,14.70
2014,08,23,03,54,14.70
2014,08,23,03,55,14.70
2014,08,23,03,56,14.70
2014,08,23,03,57,14.70
2014,08,23,03,58,14.70
2014,08,23,03,59,14.70
2014,08,23,04,00,14.70
2014,08,23,04,01,14.70
2014,08,23,04,02,14.70
2014,08,23,04,03,14.70
2014,08,23,04,04,14.70
2014,08,23,04,05,14.70
2014,08,23,04,06,14.70
2014,08,23,04,07,14.70
2014,08,23,04,08,14.70
2014,08,23,04,09,14.60
2014,08,23,04,10,14.60
2014,08,23,04,11,14.60
2014,08,23,04,12,14.60
2014,08,23,04,13,14.60
2014,08,23,04,14,14.60
2014,08,23,04,15,14.60
2014,08,23,04,16,14.60
2014,08,23,04,17,14.60
2014,08,23,04,18,14.60
2014,08,23,04,19,14.60
2014,08,23,04,20,14.50
2014,08,23,04,21,14.50
2014,08,23,04,22,14.50
2014,08,23,04,23,14.40
2014,08,23,04,24,14.40
2014,08,23,04,25,14.40
2014,08,23,04,26,14.30
2014,08,23,04,27,14.30
2014,08,23,04,28,14.30
2014,08,23,04,29,14.30
2014,08,23,04,30,14.20
2014,08,23,04,31,14.20
2014,08,23,04,32,14.20
2014,08,23,04,33,14.20
2014,08,23,04,34,14.30
2014,08,23,04,35,14.30
2014,08,23,04,36,14.30
2014,08,23,04,37,14.40
2014,08,23,04,38,14.40
2014,08,23,04,39,14.40
2014,08,23,04,40,14.40
2014,08,23,04,41,14.40
2014,08,23,04,42,14.40
2014,08,23,04,43,14.50
2014,08,23,04,44,14.50
2014,08,23,04,45,14.50
2014,08,23,04,46,14.50
2014,08,23,04,47,14.50
2014,08,23,04,48,14.50
2014,08,23,04,49,14.50
2014,08,23,04,50,14.40
2014,08,23,04,51,14.40
2014,08,23,04,52,14.40
2014,08,23,04,53,14.40
2014,08,23,04,54,14.40
2014,08,23,04,55,14.40
2014,08,23,04,56,14.40
2014,08,23,04,57,14.40
2014,08,23,04,58,14.40
2014,08,23,04,59,14.30
2014,08,23,05,00,14.30
2014,08,23,05,01,14.30
2014,08,23,05,02,14.30
2014,08,23,05,03,14.30
2014,08,23,05,04,14.30
2014,08,23,05,05,14.30
2014,08,23,05,06,14.30
2014,08,23,05,07,14.30
2014,08,23,05,08,14.30
2014,08,23,05,09,14.30
2014,08,23,05,10,14.30
2014,08,23,05,11,14.30
2014,08,23,05,12,14.30
2014,08,23,05,13,14.30
2014,08,23,05,14,14.30
2014,08,23,05,15,14.30
2014,08,23,05,16,14.20
2014,08,23,05,17,14.20
2014,08,23,05,18,14.20
2014,08,23,05,19,14.20
2014,08,23,05,20,14.10
2014,08,23,05,21,14.10
2014,08,23,05,22,14.10
2014,08,23,05,23,14.10
2014,08,23,05,24,14.10
2014,08,23,05,25,14.00
2014,08,23,05,26,14.00
2014,08,23,05,27,14.00
2014,08,23,05,28,13.90
2014,08,23,05,29,13.90
2014,08,23,05,30,13.90
2014,08,23,05,31,13.90
2014,08,23,05,32,13.90
2014,08,23,05,33,13.90
2014,08,23,05,34,13.90
2014,08,23,05,35,13.90
2014,08,23,05,36,13.90
2014,08,23,05,37,13.90
2014,08,23,05,38,13.90
2014,08,23,05,39,13.90
2014,08,23,05,40,13.90
2014,08,23,05,41,13.90
2014,08,23,05,42,13.90
2014,08,23,05,43,13.90
2014,08,23,05,44,13.80
2014,08,23,05,45,13.80
2014,08,23,05,46,13.80
2014,08,23,05,47,13.90
2014,08,23,05,48,13.90
2014,08,23,05,49,13.90
2014,08,23,05,50,13.90
2014,08,23,05,51,13.90
2014,08,23,05,52,13.90
2014,08,23,05,53,13.90
2014,08,23,05,54,13.90
2014,08,23,05,55,13.80
2014,08,23,05,56,13.80
2014,08,23,05,57,13.80
2014,08,23,05,58,13.80
2014,08,23,05,59,13.80
2014,08,23,06,00,13.80
2014,08,23,06,01,13.80
2014,08,23,06,02,13.80
2014,08,23,06,03,13.90
2014,08,23,06,04,13.90
2014,08,23,06,05,13.90
2014,08,23,06,06,13.90
2014,08,23,06,07,13.90
2014,08,23,06,08,13.90
2014,08,23,06,09,13.90
2014,08,23,06,10,14.00
2014,08,23,06,11,14.00
2014,08,23,06,12,14.00
2014,08,23,06,13,14.10
2014,08,23,06,14,14.10
2014,08,23,06,15,14.10
2014,08,23,06,16,14.10
2014,08,23,06,17,14.10
2014,08,23,06,18,14.10
2014,08,23,06,19,14.10
2014,08,23,06,20,14.10
2014,08,23,06,21,14.10
2014,08,23,06,22,14.20
2014,08,23,06,23,14.20
2014,08,23,06,24,14.20
2014,08,23,06,25,14.20
2014,08,23,06,26,14.20
2014,08,23,06,27,14.20
2014,08,23,06,28,14.20
2014,08,23,06,29,14.20
2014,08,23,06,30,14.20
2014,08,23,06,31,14.30
2014,08,23,06,32,14.30
2014,08,23,06,33,14.30
2014,08,23,06,34,14.30
2014,08,23,06,35,14.40
2014,08,23,06,36,14.40
2014,08,23,06,37,14.40
2014,08,23,06,38,14.40
2014,08,23,06,39,14.40
2014,08,23,06,40,14.50
2014,08,23,06,41,14.50
2014,08,23,06,42,14.50
2014,08,23,06,43,14.50
2014,08,23,06,44,14.50
2014,08,23,06,45,14.60
2014,08,23,06,46,14.60
2014,08,23,06,47,14.60
2014,08,23,06,48,14.60
2014,08,23,06,49,14.60
2014,08,23,06,50,14.70
2014,08,23,06,51,14.70
2014,08,23,06,52,14.70
2014,08,23,06,53,14.70
2014,08,23,06,54,14.80
2014,08,23,06,55,14.80
2014,08,23,06,56,14.80
2014,08,23,06,57,14.90
2014,08,23,06,58,14.90
2014,08,23,06,59,15.00
2014,08,23,07,00,15.10
2014,08,23,07,01,15.10
2014,08,23,07,02,15.20
2014,08,23,07,03,15.20
2014,08,23,07,04,15.30
2014,08,23,07,05,15.30
2014,08,23,07,06,15.40
2014,08,23,07,07,15.40
2014,08,23,07,08,15.40
2014,08,23,07,09,15.40
2014,08,23,07,10,15.40
2014,08,23,07,11,15.50
2014,08,23,07,12,15.50
2014,08,23,07,13,15.60
2014,08,23,07,14,15.70
2014,08,23,07,15,15.70
2014,08,23,07,16,15.80
2014,08,23,07,17,15.90
2014,08,23,07,18,16.00
2014,08,23,07,19,16.10
2014,08,23,07,20,16.20
2014,08,23,07,21,16.30
2014,08,23,07,22,16.30
2014,08,23,07,23,16.40
2014,08,23,07,24,16.50
2014,08,23,07,25,16.50
2014,08,23,07,26,16.60
2014,08,23,07,27,16.60
2014,08,23,07,28,16.70
2014,08,23,07,29,16.70
2014,08,23,07,30,16.70
2014,08,23,07,31,16.80
2014,08,23,07,32,16.80
2014,08,23,07,33,16.80
2014,08,23,07,34,16.80
2014,08,23,07,35,16.80
2014,08,23,07,36,16.80
2014,08,23,07,37,16.90
2014,08,23,07,38,16.90
2014,08,23,07,39,16.90
2014,08,23,07,40,17.00
2014,08,23,07,41,17.00
2014,08,23,07,42,17.10
2014,08,23,07,43,17.10
2014,08,23,07,44,17.10
2014,08,23,07,45,17.20
2014,08,23,07,46,17.20
2014,08,23,07,47,17.30
2014,08,23,07,48,17.30
2014,08,23,07,49,17.40
2014,08,23,07,50,17.40
2014,08,23,07,51,17.50
2014,08,23,07,52,17.60
2014,08,23,07,53,17.70
2014,08,23,07,54,17.70
2014,08,23,07,55,17.80
2014,08,23,07,56,17.80
2014,08,23,07,57,17.90
2014,08,23,07,58,18.00
2014,08,23,07,59,18.00
2014,08,23,08,00,18.10
2014,08,23,08,01,18.20
2014,08,23,08,02,18.20
2014,08,23,08,03,18.30
2014,08,23,08,04,18.30
2014,08,23,08,05,18.40
2014,08,23,08,06,18.40
2014,08,23,08,07,18.50
2014,08,23,08,08,18.50
2014,08,23,08,09,18.60
2014,08,23,08,10,18.60
2014,08,23,08,11,18.70
2014,08,23,08,12,18.70
2014,08,23,08,13,18.70
2014,08,23,08,14,18.70
2014,08,23,08,15,18.70
2014,08,23,08,16,18.70
2014,08,23,08,17,18.70
2014,08,23,08,18,18.70
2014,08,23,08,19,18.60
2014,08,23,08,20,18.60
2014,08,23,08,21,18.60
2014,08,23,08,22,18.60
2014,08,23,08,23,18.60
2014,08,23,08,24,18.50
2014,08,23,08,25,18.50
2014,08,23,08,26,18.50
2014,08,23,08,27,18.50
2014,08,23,08,28,18.50
2014,08,23,08,29,18.50
2014,08,23,08,30,18.40
2014,08,23,08,31,18.40
2014,08,23,08,32,18.40
2014,08,23,08,33,18.40
2014,08,23,08,34,18.40
2014,08,23,08,35,18.40
2014,08,23,08,36,18.40
2014,08,23,08,37,18.50
2014,08,23,08,38,18.50
2014,08,23,08,39,18.40
2014,08,23,08,40,18.40
2014,08,23,08,41,18.40
2014,08,23,08,42,18.40
2014,08,23,08,43,18.50
2014,08,23,08,44,18.50
2014,08,23,08,45,18.50
2014,08,23,08,46,18.50
2014,08,23,08,47,18.50
2014,08,23,08,48,18.50
2014,08,23,08,49,18.50
2014,08,23,08,50,18.60
2014,08,23,08,51,18.60
2014,08,23,08,52,18.60
2014,08,23,08,53,18.60
2014,08,23,08,54,18.60
2014,08,23,08,55,18.60
2014,08,23,08,56,18.70
2014,08,23,08,57,18.70
2014,08,23,08,58,18.60
2014,08,23,08,59,18.60
2014,08,23,09,00,18.60
2014,08,23,09,01,18.60
2014,08,23,09,02,18.60
2014,08,23,09,03,18.60
2014,08,23,09,04,18.60
2014,08,23,09,05,18.60
2014,08,23,09,06,18.60
2014,08,23,09,07,18.60
2014,08,23,09,08,18.60
2014,08,23,09,09,18.70
2014,08,23,09,10,18.70
2014,08,23,09,11,18.70
2014,08,23,09,12,18.70
2014,08,23,09,13,18.80
2014,08,23,09,14,18.80
2014,08,23,09,15,18.80
2014,08,23,09,16,18.80
2014,08,23,09,17,18.80
2014,08,23,09,18,18.80
2014,08,23,09,19,18.80
2014,08,23,09,20,18.80
2014,08,23,09,21,18.80
2014,08,23,09,22,18.90
2014,08,23,09,23,18.90
2014,08,23,09,24,18.90
2014,08,23,09,25,18.90
2014,08,23,09,26,19.00
2014,08,23,09,27,19.00
2014,08,23,09,28,19.10
2014,08,23,09,29,19.10
2014,08,23,09,30,19.10
2014,08,23,09,31,19.20
2014,08,23,09,32,19.20
2014,08,23,09,33,19.20
2014,08,23,09,34,19.30
2014,08,23,09,35,19.30
2014,08,23,09,36,19.30
2014,08,23,09,37,19.30
2014,08,23,09,38,19.30
2014,08,23,09,39,19.40
2014,08,23,09,40,19.40
2014,08,23,09,41,19.40
2014,08,23,09,42,19.50
2014,08,23,09,43,19.50
2014,08,23,09,44,19.50
2014,08,23,09,45,19.50
2014,08,23,09,46,19.60
2014,08,23,09,47,19.60
2014,08,23,09,48,19.60
2014,08,23,09,49,19.50
2014,08,23,09,50,19.50
2014,08,23,09,51,19.50
2014,08,23,09,52,19.60
2014,08,23,09,53,19.60
2014,08,23,09,54,19.70
2014,08,23,09,55,19.70
2014,08,23,09,56,19.70
2014,08,23,09,57,19.70
2014,08,23,09,58,19.70
2014,08,23,09,59,19.70
2014,08,23,10,00,19.70
2014,08,23,10,01,19.70
2014,08,23,10,02,19.70
2014,08,23,10,03,19.80
2014,08,23,10,04,19.80
2014,08,23,10,05,19.80
2014,08,23,10,06,19.80
2014,08,23,10,07,19.80
2014,08,23,10,08,19.90
2014,08,23,10,09,19.90
2014,08,23,10,10,20.00
2014,08,23,10,11,20.00
2014,08,23,10,12,20.00
2014,08,23,10,13,20.10
2014,08,23,10,14,20.20
2014,08,23,10,15,20.20
2014,08,23,10,16,20.20
2014,08,23,10,17,20.30
2014,08,23,10,18,20.30
2014,08,23,10,19,20.20
2014,08,23,10,20,20.20
2014,08,23,10,21,20.20
2014,08,23,10,22,20.20
2014,08,23,10,23,20.20
2014,08,23,10,24,20.30
2014,08,23,10,25,20.30
2014,08,23,10,26,20.30
2014,08,23,10,27,20.30
2014,08,23,10,28,20.30
2014,08,23,10,29,20.30
2014,08,23,10,30,20.30
2014,08,23,10,31,20.30
2014,08,23,10,32,20.20
2014,08,23,10,33,20.20
2014,08,23,10,34,20.10
2014,08,23,10,35,20.10
2014,08,23,10,36,20.00
2014,08,23,10,37,20.00
2014,08,23,10,38,20.10
2014,08,23,10,39,20.10
2014,08,23,10,40,20.10
2014,08,23,10,41,20.00
2014,08,23,10,42,20.00
2014,08,23,10,43,20.10
2014,08,23,10,44,20.10
2014,08,23,10,45,20.20
2014,08,23,10,46,20.20
2014,08,23,10,47,20.20
2014,08,23,10,48,20.20
2014,08,23,10,49,20.20
2014,08,23,10,50,20.20
2014,08,23,10,51,20.20
2014,08,23,10,52,20.20
2014,08,23,10,53,20.30
2014,08,23,10,54,20.40
2014,08,23,10,55,20.40
2014,08,23,10,56,20.40
2014,08,23,10,57,20.40
2014,08,23,10,58,20.50
2014,08,23,10,59,20.50
2014,08,23,11,00,20.60
2014,08,23,11,01,20.70
2014,08,23,11,02,20.70
2014,08,23,11,03,20.70
2014,08,23,11,04,20.80
2014,08,23,11,05,20.80
2014,08,23,11,06,20.80
2014,08,23,11,07,20.80
2014,08,23,11,08,20.80
2014,08,23,11,09,20.80
2014,08,23,11,10,20.80
2014,08,23,11,11,20.80
2014,08,23,11,12,20.80
2014,08,23,11,13,20.70
2014,08,23,11,14,20.70
2014,08,23,11,15,20.80
2014,08,23,11,16,20.80
2014,08,23,11,17,20.90
2014,08,23,11,18,20.90
2014,08,23,11,19,20.80
2014,08,23,11,20,20.90
2014,08,23,11,21,20.90
2014,08,23,11,22,21.00
2014,08,23,11,23,21.00
2014,08,23,11,24,21.10
2014,08,23,11,25,21.20
2014,08,23,11,26,21.20
2014,08,23,11,27,21.30
2014,08,23,11,28,21.30
2014,08,23,11,29,21.30
2014,08,23,11,30,21.40
2014,08,23,11,31,21.40
2014,08,23,11,32,21.40
2014,08,23,11,33,21.40
2014,08,23,11,34,21.40
2014,08,23,11,35,21.40
2014,08,23,11,36,21.30
2014,08,23,11,37,21.30
2014,08,23,11,38,21.30
2014,08,23,11,39,21.30
2014,08,23,11,40,21.30
2014,08,23,11,41,21.20
2014,08,23,11,42,21.20
2014,08,23,11,43,21.20
2014,08,23,11,44,21.20
2014,08,23,11,45,21.20
2014,08,23,11,46,21.10
2014,08,23,11,47,21.10
2014,08,23,11,48,21.00
2014,08,23,11,49,21.00
2014,08,23,11,50,20.90
2014,08,23,11,51,20.90
2014,08,23,11,52,21.00
2014,08,23,11,53,21.00
2014,08,23,11,54,21.10
2014,08,23,11,55,21.20
2014,08,23,11,56,21.20
2014,08,23,11,57,21.30
2014,08,23,11,58,21.30
2014,08,23,11,59,21.40
2014,08,23,12,00,21.40
2014,08,23,12,01,21.40
2014,08,23,12,02,21.40
2014,08,23,12,03,21.40
2014,08,23,12,04,21.40
2014,08,23,12,05,21.40
2014,08,23,12,06,21.50
2014,08,23,12,07,21.60
2014,08,23,12,08,21.70
2014,08,23,12,09,21.60
2014,08,23,12,10,21.60
2014,08,23,12,11,21.50
2014,08,23,12,12,21.50
2014,08,23,12,13,21.40
2014,08,23,12,14,21.40
2014,08,23,12,15,21.40
2014,08,23,12,16,21.30
2014,08,23,12,17,21.30
2014,08,23,12,18,21.20
2014,08,23,12,19,21.20
2014,08,23,12,20,21.20
2014,08,23,12,21,21.20
2014,08,23,12,22,21.20
2014,08,23,12,23,21.20
2014,08,23,12,24,21.20
2014,08,23,12,25,21.20
2014,08,23,12,26,21.30
2014,08,23,12,27,21.30
2014,08,23,12,28,21.40
2014,08,23,12,29,21.40
2014,08,23,12,30,21.50
2014,08,23,12,31,21.60
2014,08,23,12,32,21.60
2014,08,23,12,33,21.60
2014,08,23,12,34,21.50
2014,08,23,12,35,21.50
2014,08,23,12,36,21.50
2014,08,23,12,37,21.60
2014,08,23,12,38,21.60
2014,08,23,12,39,21.70
2014,08,23,12,40,21.80
2014,08,23,12,41,21.80
2014,08,23,12,42,21.80
2014,08,23,12,43,21.80
2014,08,23,12,44,21.80
2014,08,23,12,45,21.80
2014,08,23,12,46,21.80
2014,08,23,12,47,21.80
2014,08,23,12,48,21.80
2014,08,23,12,49,21.90
2014,08,23,12,50,21.90
2014,08,23,12,51,22.10
2014,08,23,12,52,22.20
2014,08,23,12,53,22.30
2014,08,23,12,54,22.30
2014,08,23,12,55,22.50
2014,08,23,12,56,22.50
2014,08,23,12,57,22.50
2014,08,23,12,58,22.40
2014,08,23,12,59,22.40
2014,08,23,13,00,22.40
2014,08,23,13,01,22.40
2014,08,23,13,02,22.40
2014,08,23,13,03,22.30
2014,08,23,13,04,22.30
2014,08,23,13,05,22.30
2014,08,23,13,06,22.30
2014,08,23,13,07,22.40
2014,08,23,13,08,22.50
2014,08,23,13,09,22.60
2014,08,23,13,10,22.60
2014,08,23,13,11,22.60
2014,08,23,13,12,22.70
2014,08,23,13,13,22.80
2014,08,23,13,14,22.90
2014,08,23,13,15,23.00
2014,08,23,13,16,23.10
2014,08,23,13,17,23.10
2014,08,23,13,18,23.10
2014,08,23,13,19,23.10
2014,08,23,13,20,23.00
2014,08,23,13,21,22.80
2014,08,23,13,22,22.70
2014,08,23,13,23,22.70
2014,08,23,13,24,22.80
2014,08,23,13,25,22.80
2014,08,23,13,26,22.70
2014,08,23,13,27,22.70
2014,08,23,13,28,22.70
2014,08,23,13,29,22.70
2014,08,23,13,30,22.70
2014,08,23,13,31,22.70
2014,08,23,13,32,22.80
2014,08,23,13,33,22.90
2014,08,23,13,34,22.90
2014,08,23,13,35,23.00
2014,08,23,13,36,23.10
2014,08,23,13,37,23.10
2014,08,23,13,38,23.00
2014,08,23,13,39,23.00
2014,08,23,13,40,22.90
2014,08,23,13,41,22.90
2014,08,23,13,42,22.90
2014,08,23,13,43,22.80
2014,08,23,13,44,22.70
2014,08,23,13,45,22.50
2014,08,23,13,46,22.50
2014,08,23,13,47,22.50
2014,08,23,13,48,22.50
2014,08,23,13,49,22.60
2014,08,23,13,50,22.60
2014,08,23,13,51,22.70
2014,08,23,13,52,22.70
2014,08,23,13,53,22.70
2014,08,23,13,54,22.70
2014,08,23,13,55,22.80
2014,08,23,13,56,22.80
2014,08,23,13,57,22.80
2014,08,23,13,58,22.80
2014,08,23,13,59,22.70
2014,08,23,14,00,22.70
2014,08,23,14,01,22.70
2014,08,23,14,02,22.70
2014,08,23,14,03,22.70
2014,08,23,14,04,22.80
2014,08,23,14,05,22.80
2014,08,23,14,06,22.80
2014,08,23,14,07,22.80
2014,08,23,14,08,22.90
2014,08,23,14,09,22.90
2014,08,23,14,10,22.90
2014,08,23,14,11,23.00
2014,08,23,14,12,23.10
2014,08,23,14,13,23.10
2014,08,23,14,14,23.20
2014,08,23,14,15,23.30
2014,08,23,14,16,23.30
2014,08,23,14,17,23.30
2014,08,23,14,18,23.40
2014,08,23,14,19,23.40
2014,08,23,14,20,23.40
2014,08,23,14,21,23.50
2014,08,23,14,22,23.60
2014,08,23,14,23,23.70
2014,08,23,14,24,23.70
2014,08,23,14,25,23.70
2014,08,23,14,26,23.70
2014,08,23,14,27,23.70
2014,08,23,14,28,23.70
2014,08,23,14,29,23.70
2014,08,23,14,30,23.70
2014,08,23,14,31,23.70
2014,08,23,14,32,23.70
2014,08,23,14,33,23.60
2014,08,23,14,34,23.60
2014,08,23,14,35,23.50
2014,08,23,14,36,23.50
2014,08,23,14,37,23.60
2014,08,23,14,38,23.60
2014,08,23,14,39,23.60
2014,08,23,14,40,23.50
2014,08,23,14,41,23.50
2014,08,23,14,42,23.40
2014,08,23,14,43,23.40
2014,08,23,14,44,23.40
2014,08,23,14,45,23.50
2014,08,23,14,46,23.50
2014,08,23,14,47,23.60
2014,08,23,14,48,23.70
2014,08,23,14,49,23.70
2014,08,23,14,50,23.80
2014,08,23,14,51,23.80
2014,08,23,14,52,23.90
2014,08,23,14,53,23.90
2014,08,23,14,54,24.00
2014,08,23,14,55,24.10
2014,08,23,14,56,24.10
2014,08,23,14,57,24.20
2014,08,23,14,58,24.20
2014,08,23,14,59,24.20
2014,08,23,15,00,24.10
2014,08,23,15,01,24.10
2014,08,23,15,02,24.10
2014,08,23,15,03,24.10
2014,08,23,15,04,24.10
2014,08,23,15,05,24.20
2014,08,23,15,06,24.30
2014,08,23,15,07,24.30
2014,08,23,15,08,24.30
2014,08,23,15,09,24.40
2014,08,23,15,10,24.50
2014,08,23,15,11,24.50
2014,08,23,15,12,24.60
2014,08,23,15,13,24.50
2014,08,23,15,14,24.50
2014,08,23,15,15,24.50
2014,08,23,15,16,24.50
2014,08,23,15,17,24.50
2014,08,23,15,18,24.60
2014,08,23,15,19,24.60
2014,08,23,15,20,24.60
2014,08,23,15,21,24.70
2014,08,23,15,22,24.60
2014,08,23,15,23,24.50
2014,08,23,15,24,24.50
2014,08,23,15,25,24.40
2014,08,23,15,26,24.40
2014,08,23,15,27,24.40
2014,08,23,15,28,24.40
2014,08,23,15,29,24.40
2014,08,23,15,30,24.50
2014,08,23,15,31,24.40
2014,08,23,15,32,24.40
2014,08,23,15,33,24.40
2014,08,23,15,34,24.40
2014,08,23,15,35,24.40
2014,08,23,15,36,24.40
2014,08,23,15,37,24.40
2014,08,23,15,38,24.40
2014,08,23,15,39,24.40
2014,08,23,15,40,24.40
2014,08,23,15,41,24.50
2014,08,23,15,42,24.60
2014,08,23,15,43,24.60
2014,08,23,15,44,24.70
2014,08,23,15,45,24.70
2014,08,23,15,46,24.60
2014,08,23,15,47,24.50
2014,08,23,15,48,24.50
2014,08,23,15,49,24.50
2014,08,23,15,50,24.40
2014,08,23,15,51,24.40
2014,08,23,15,52,24.40
2014,08,23,15,53,24.30
2014,08,23,15,54,24.30
2014,08,23,15,55,24.20
2014,08,23,15,56,24.20
2014,08,23,15,57,24.10
2014,08,23,15,58,24.00
2014,08,23,15,59,24.00
2014,08,23,16,00,24.00
2014,08,23,16,01,24.00
2014,08,23,16,02,24.00
2014,08,23,16,03,24.10
2014,08,23,16,04,24.10
2014,08,23,16,05,24.10
2014,08,23,16,06,24.10
2014,08,23,16,07,24.10
2014,08,23,16,08,24.10
2014,08,23,16,09,24.10
2014,08,23,16,10,24.20
2014,08,23,16,11,24.10
2014,08,23,16,12,24.20
2014,08,23,16,13,24.20
2014,08,23,16,14,24.20
2014,08,23,16,15,24.20
2014,08,23,16,16,24.10
2014,08,23,16,17,24.10
2014,08,23,16,18,24.10
2014,08,23,16,19,24.20
2014,08,23,16,20,24.20
2014,08,23,16,21,24.20
2014,08,23,16,22,24.20
2014,08,23,16,23,24.30
2014,08,23,16,24,24.30
2014,08,23,16,25,24.30
2014,08,23,16,26,24.30
2014,08,23,16,27,24.30
2014,08,23,16,28,24.30
2014,08,23,16,29,24.30
2014,08,23,16,30,24.30
2014,08,23,16,31,24.30
2014,08,23,16,32,24.30
2014,08,23,16,33,24.30
2014,08,23,16,34,24.40
2014,08,23,16,35,24.40
2014,08,23,16,36,24.50
2014,08,23,16,37,24.50
2014,08,23,16,38,24.60
2014,08,23,16,39,24.60
2014,08,23,16,40,24.60
2014,08,23,16,41,24.70
2014,08,23,16,42,24.70
2014,08,23,16,43,24.80
2014,08,23,16,44,24.80
2014,08,23,16,45,24.90
2014,08,23,16,46,25.00
2014,08,23,16,47,25.10
2014,08,23,16,48,25.20
2014,08,23,16,49,25.20
2014,08,23,16,50,25.30
2014,08,23,16,51,25.30
2014,08,23,16,52,25.40
2014,08,23,16,53,25.40
2014,08,23,16,54,25.40
2014,08,23,16,55,25.40
2014,08,23,16,56,25.40
2014,08,23,16,57,25.40
2014,08,23,16,58,25.40
2014,08,23,16,59,25.30
2014,08,23,17,00,25.30
2014,08,23,17,01,25.30
2014,08,23,17,02,25.30
2014,08,23,17,03,25.30
2014,08,23,17,04,25.30
2014,08,23,17,05,25.30
2014,08,23,17,06,25.40
2014,08,23,17,07,25.40
2014,08,23,17,08,25.40
2014,08,23,17,09,25.40
2014,08,23,17,10,25.40
2014,08,23,17,11,25.50
2014,08,23,17,12,25.50
2014,08,23,17,13,25.50
2014,08,23,17,14,25.60
2014,08,23,17,15,25.60
2014,08,23,17,16,25.70
2014,08,23,17,17,25.70
2014,08,23,17,18,25.70
2014,08,23,17,19,25.70